• In Germany
  • List of Countries
  • For 7 days
  • Water Temperature
  • Satellite Maps
  • Weather Map
  • Weather Widgets
  • user-avatar
    Login

    Hourly Weather Graz

    Today, 27 April, Thursday

    Time Temperature Precipitation Wind Pressure Humidity
    00:00 +10°C° 0.2 mm 2 mps 718 mmHg 92%
    01:00 +10°C° 0.2 mm 2 mps 718 mmHg 93%
    02:00 +10°C° 0.3 mm 2 mps 718 mmHg 94%
    03:00 +10°C° 0.3 mm 2 mps 718 mmHg 95%
    04:00 +10°C° 0.3 mm 2 mps 718 mmHg 95%
    05:00 +10°C° 0.7 mm 2 mps 718 mmHg 95%
    06:00 +10°C° 0.7 mm 2 mps 718 mmHg 95%
    07:00 +10°C° 0.7 mm 2 mps 718 mmHg 95%
    08:00 +10°C° 1 mm 2 mps 718 mmHg 95%
    09:00 +9°C° 1 mm 2 mps 718 mmHg 94%
    10:00 +9°C° 1 mm 3 mps 719 mmHg 93%
    11:00 +9°C° 0.6 mm 2 mps 719 mmHg 93%
    12:00 +9°C° 0.6 mm 2 mps 719 mmHg 92%
    13:00 +9°C° 0.6 mm 2 mps 719 mmHg 92%
    14:00 +9°C° 0.6 mm 2 mps 719 mmHg 93%
    15:00 +8°C° 0.6 mm 2 mps 719 mmHg 93%
    16:00 +8°C° 0.6 mm 2 mps 719 mmHg 94%
    17:00 +8°C° 1 mm 2 mps 719 mmHg 95%
    18:00 +9°C° 1 mm 1 mps 718 mmHg 96%
    19:00 +8°C° 1 mm 1 mps 718 mmHg 97%
    20:00 +8°C° 2.1 mm 1 mps 718 mmHg 97%
    21:00 +8°C° 2.1 mm 1 mps 718 mmHg 97%
    22:00 +8°C° 2.1 mm 1 mps 718 mmHg 98%
    23:00 +7°C° 1.5 mm 2 mps 717 mmHg 98%

    Tomorrow, 28 April, Friday

    Time Temperature Precipitation Wind Pressure Humidity
    00:00 +7°C° 1.5 mm 2 mps 716 mmHg 98%
    01:00 +7°C° 1.5 mm 2 mps 716 mmHg 98%
    02:00 +8°C° 1.2 mm 1 mps 716 mmHg 98%
    03:00 +8°C° 1.2 mm 1 mps 715 mmHg 98%
    04:00 +8°C° 1.2 mm 1 mps 715 mmHg 98%
    05:00 +8°C° 0.9 mm 1 mps 715 mmHg 98%
    06:00 +9°C° 0.9 mm 1 mps 715 mmHg 97%
    07:00 +9°C° 0.9 mm 1 mps 715 mmHg 97%
    08:00 +10°C° 0.4 mm 1 mps 715 mmHg 95%
    09:00 +11°C° 0.4 mm 1 mps 715 mmHg 93%
    10:00 +12°C° 0.4 mm 2 mps 716 mmHg 91%
    11:00 +13°C° 0.3 mm 2 mps 716 mmHg 85%
    12:00 +14°C° 0.3 mm 2 mps 716 mmHg 79%
    13:00 +13°C° 0.3 mm 3 mps 716 mmHg 73%
    14:00 +13°C° 0.2 mm 3 mps 716 mmHg 72%
    15:00 +13°C° 0.2 mm 3 mps 716 mmHg 72%
    16:00 +13°C° 0.2 mm 3 mps 717 mmHg 71%
    17:00 +12°C° 0.4 mm 2 mps 717 mmHg 77%
    18:00 +9°C° 0.4 mm 2 mps 717 mmHg 83%
    19:00 +8°C° 0.4 mm 2 mps 718 mmHg 88%
    20:00 +7°C° 0.5 mm 2 mps 718 mmHg 90%
    21:00 +8°C° 0.5 mm 1 mps 719 mmHg 92%
    22:00 +7°C° 0.5 mm 1 mps 720 mmHg 94%
    23:00 +7°C° 0.3 mm 1 mps 720 mmHg 95%

    Day after tomorrow, 29 April, Saturday

    Time Temperature Precipitation Wind Pressure Humidity
    00:00 +7°C° 0.3 mm 1 mps 720 mmHg 95%
    01:00 +7°C° 0.3 mm 1 mps 721 mmHg 96%
    02:00 +6°C° 0.2 mm 1 mps 721 mmHg 95%
    03:00 +6°C° 0.2 mm 1 mps 721 mmHg 95%
    04:00 +6°C° 0.2 mm 1 mps 722 mmHg 95%
    05:00 +6°C° 0 mm 1 mps 722 mmHg 92%
    06:00 +7°C° 0 mm 1 mps 723 mmHg 89%
    07:00 +8°C° 0 mm 1 mps 723 mmHg 87%
    08:00 +8°C° 0 mm 2 mps 723 mmHg 78%
    09:00 +9°C° 0 mm 2 mps 723 mmHg 70%
    10:00 +12°C° 0 mm 2 mps 724 mmHg 61%
    11:00 +12°C° 0.1 mm 2 mps 723 mmHg 59%
    12:00 +13°C° 0.1 mm 1 mps 723 mmHg 56%
    13:00 +14°C° 0.1 mm 1 mps 723 mmHg 54%
    14:00 +14°C° 0.2 mm 1 mps 723 mmHg 55%
    15:00 +14°C° 0.2 mm 1 mps 723 mmHg 55%
    16:00 +14°C° 0.2 mm 1 mps 723 mmHg 56%
    17:00 +11°C° 0.1 mm 1 mps 723 mmHg 67%
    18:00 +9°C° 0.1 mm 1 mps 723 mmHg 77%
    19:00 +7°C° 0.1 mm 1 mps 722 mmHg 87%
    20:00 +6°C° 0 mm 1 mps 723 mmHg 89%
    21:00 +5°C° 0 mm 1 mps 723 mmHg 91%
    22:00 +4°C° 0 mm 1 mps 723 mmHg 93%
    23:00 +4°C° 0 mm 1 mps 723 mmHg 93%

    30 April, Sunday

    Time Temperature Precipitation Wind Pressure Humidity
    00:00 +4°C° 0 mm 1 mps 723 mmHg 94%
    01:00 +3°C° 0 mm 1 mps 723 mmHg 94%
    02:00 +3°C° 0 mm 1 mps 723 mmHg 94%
    03:00 +3°C° 0 mm 1 mps 723 mmHg 94%
    04:00 +3°C° 0 mm 1 mps 723 mmHg 94%
    05:00 +5°C° 0 mm 1 mps 723 mmHg 89%
    06:00 +8°C° 0 mm 1 mps 724 mmHg 83%
    07:00 +10°C° 0 mm 1 mps 724 mmHg 78%
    08:00 +12°C° 0 mm 1 mps 724 mmHg 71%
    09:00 +13°C° 0 mm 2 mps 724 mmHg 65%
    10:00 +15°C° 0 mm 2 mps 724 mmHg 58%
    11:00 +16°C° 0 mm 2 mps 724 mmHg 56%
    12:00 +16°C° 0 mm 3 mps 723 mmHg 54%
    13:00 +17°C° 0 mm 3 mps 723 mmHg 52%
    14:00 +17°C° 0 mm 3 mps 723 mmHg 54%
    15:00 +17°C° 0 mm 3 mps 723 mmHg 56%
    16:00 +17°C° 0 mm 3 mps 722 mmHg 58%
    17:00 +14°C° 0 mm 3 mps 722 mmHg 69%
    18:00 +12°C° 0 mm 2 mps 722 mmHg 80%
    19:00 +9°C° 0 mm 2 mps 722 mmHg 90%
    20:00 +9°C° 0 mm 1 mps 722 mmHg 92%
    21:00 +8°C° 0 mm 1 mps 723 mmHg 93%
    22:00 +7°C° 0 mm 1 mps 723 mmHg 95%
    23:00 +6°C° 0 mm 1 mps 723 mmHg 95%

    1 May, Monday

    Time Temperature Precipitation Wind Pressure Humidity
    00:00 +6°C° 0 mm 1 mps 722 mmHg 95%
    01:00 +6°C° 0 mm 1 mps 722 mmHg 95%
    02:00 +5°C° 0 mm 1 mps 722 mmHg 95%
    03:00 +5°C° 0 mm 1 mps 722 mmHg 95%
    04:00 +5°C° 0 mm 1 mps 722 mmHg 95%
    05:00 +7°C° 0 mm 1 mps 722 mmHg 90%
    06:00 +9°C° 0 mm 1 mps 723 mmHg 86%
    07:00 +11°C° 0 mm 1 mps 723 mmHg 81%
    08:00 +12°C° 0 mm 2 mps 723 mmHg 74%
    09:00 +14°C° 0 mm 2 mps 723 mmHg 67%
    10:00 +14°C° 0 mm 3 mps 723 mmHg 60%
    11:00 +16°C° 0 mm 3 mps 723 mmHg 58%
    12:00 +17°C° 0 mm 3 mps 722 mmHg 56%
    13:00 +18°C° 0 mm 3 mps 722 mmHg 53%
    14:00 +18°C° 0 mm 3 mps 722 mmHg 55%
    15:00 +18°C° 0 mm 3 mps 722 mmHg 57%
    16:00 +18°C° 0 mm 3 mps 722 mmHg 59%
    17:00 +16°C° 0 mm 3 mps 722 mmHg 70%
    18:00 +14°C° 0 mm 2 mps 722 mmHg 81%
    19:00 +12°C° 0 mm 1 mps 722 mmHg 91%
    20:00 +11°C° 0 mm 1 mps 722 mmHg 93%
    21:00 +10°C° 0 mm 1 mps 722 mmHg 94%
    22:00 +9°C° 0 mm 1 mps 723 mmHg 95%
    23:00 +9°C° 0 mm 1 mps 723 mmHg 95%

    2 May, Tuesday

    Time Temperature Precipitation Wind Pressure Humidity
    00:00 +8°C° 0 mm 1 mps 723 mmHg 96%
    01:00 +8°C° 0 mm 1 mps 723 mmHg 96%
    02:00 +8°C° 0 mm 1 mps 723 mmHg 96%
    03:00 +8°C° 0 mm 1 mps 723 mmHg 96%
    04:00 +8°C° 0 mm 1 mps 723 mmHg 96%
    05:00 +10°C° 0 mm 1 mps 723 mmHg 91%
    06:00 +12°C° 0 mm 1 mps 724 mmHg 86%
    07:00 +14°C° 0 mm 1 mps 724 mmHg 81%
    08:00 +16°C° 0 mm 1 mps 724 mmHg 75%
    09:00 +18°C° 0 mm 1 mps 724 mmHg 69%
    10:00 +19°C° 0 mm 2 mps 725 mmHg 63%
    11:00 +19°C° 0.1 mm 2 mps 725 mmHg 64%
    12:00 +20°C° 0.1 mm 2 mps 725 mmHg 64%
    13:00 +20°C° 0.1 mm 2 mps 725 mmHg 65%
    14:00 +20°C° 0.3 mm 2 mps 724 mmHg 68%
    15:00 +20°C° 0.3 mm 2 mps 724 mmHg 71%
    16:00 +19°C° 0.3 mm 2 mps 724 mmHg 74%
    17:00 +17°C° 0.6 mm 2 mps 724 mmHg 81%
    18:00 +16°C° 0.6 mm 1 mps 724 mmHg 88%
    19:00 +14°C° 0.6 mm 1 mps 724 mmHg 95%
    20:00 +14°C° 0.8 mm 1 mps 724 mmHg 95%
    21:00 +13°C° 0.8 mm 1 mps 725 mmHg 96%
    22:00 +13°C° 0.8 mm 1 mps 725 mmHg 97%
    23:00 +13°C° 0.5 mm 1 mps 725 mmHg 97%
    Show more